Weather History for KFDY - October, 2014

Change the Weather History Date:

Wednesday, October 15, 2014

  Actual Average Record
Temperature  
Mean Temperature 57 °F -  
Max Temperature 63 °F 64 °F 83 °F (1956)
Min Temperature 50 °F 43 °F 30 °F (2006)
Degree Days  
Heating Degree Days 8    
Growing Degree Days 7 (Base 50)    
Moisture  
Dew Point 53 °F    
Average Humidity 85    
Maximum Humidity 96    
Minimum Humidity 70    
Precipitation  
Precipitation 0.08 in - - ()
Sea Level Pressure  
Sea Level Pressure 29.75 in    
Wind  
Wind Speed 7 mph (SSE)    
Max Wind Speed 13 mph    
Max Gust Speed 17 mph    
Visibility 9 miles    
Events Fog , Rain    
Averages and records for this station are not official NWS values.
T = Trace of Precipitation, MM = Missing Value Source: NWS Daily Summary

Daily Weather History Graph

Daily Weather History Graph

Search for Another Location

Airport or City:

Trip Planner

Search our weather history database for the weather conditions in past years. The results will help you decide how hot, cold, wet, or windy it might be!

Date:

Astronomy

Oct. 15, 2014 Rise Set
Actual Time 7:46 AM EDT 6:54 PM EDT
Civil Twilight 7:18 AM EDT 7:21 PM EDT
Nautical Twilight 6:46 AM EDT 7:53 PM EDT
Astronomical Twilight 6:14 AM EDT 8:25 PM EDT
Moon No Moon Rise 2:28 PM EDT (10/15)
Length of Visible Light 12h 03m
Length of Day
11h 07m
Waning Gibbous, 51% of the Moon is Illuminated
Oct 15
Waning Gibbous
Oct 15
Last Quarter
Oct 23
New
Oct 30
First Quarter
Nov 6
Full

Hourly Weather History & Observations

Time (EDT) Temp. Dew Point Humidity Pressure Visibility Wind Dir Wind Speed Gust Speed Precip Events Conditions
12:35 AM 57.9 °F 55.9 °F 93% 29.72 in 9.0 mi SSE 10.4 mph - N/A   Scattered Clouds
12:53 AM 57.0 °F 55.0 °F 93% 29.70 in 7.0 mi SSE 6.9 mph - N/A   Partly Cloudy
1:53 AM 55.9 °F 54.0 °F 93% 29.70 in 8.0 mi South 10.4 mph - N/A   Clear
2:53 AM 54.0 °F 52.0 °F 93% 29.72 in 8.0 mi South 8.1 mph - N/A   Clear
3:53 AM 52.0 °F 50.0 °F 93% 29.72 in 7.0 mi South 6.9 mph - N/A   Clear
4:53 AM 53.1 °F 51.1 °F 93% 29.74 in 10.0 mi SSE 6.9 mph - N/A   Clear
5:53 AM 52.0 °F 50.0 °F 93% 29.75 in 9.0 mi SSE 5.8 mph - N/A   Clear
6:53 AM 52.0 °F 50.0 °F 93% 29.75 in 10.0 mi SSE 5.8 mph - N/A   Clear
7:53 AM 52.0 °F 50.0 °F 93% 29.77 in 10.0 mi SE 6.9 mph - N/A   Mostly Cloudy
8:53 AM 53.1 °F 51.1 °F 93% 29.78 in 10.0 mi SE 5.8 mph - N/A   Overcast
9:53 AM 55.9 °F 53.1 °F 90% 29.78 in 10.0 mi SSE 6.9 mph - N/A   Overcast
10:53 AM 57.9 °F 54.0 °F 87% 29.76 in 10.0 mi SSE 8.1 mph - N/A   Overcast
11:53 AM 59.0 °F 53.1 °F 81% 29.76 in 10.0 mi South 9.2 mph - N/A   Overcast
12:37 PM 60.1 °F 53.1 °F 78% 29.78 in 10.0 mi SSE 8.1 mph - N/A   Overcast
12:53 PM 61.0 °F 53.1 °F 75% 29.77 in 10.0 mi South 11.5 mph - N/A   Overcast
1:21 PM 62.1 °F 53.1 °F 72% 29.77 in 10.0 mi SSE 9.2 mph - N/A   Overcast
1:42 PM 62.1 °F 53.1 °F 72% 29.76 in 10.0 mi SSE 6.9 mph - N/A   Overcast
1:53 PM 62.1 °F 53.1 °F 72% 29.74 in 10.0 mi SE 5.8 mph - N/A   Overcast
2:13 PM 62.1 °F 52.0 °F 70% 29.74 in 10.0 mi SE 5.8 mph - N/A   Overcast
2:53 PM 61.0 °F 52.0 °F 72% 29.73 in 10.0 mi East 5.8 mph - N/A   Overcast
3:14 PM 60.1 °F 54.0 °F 80% 29.74 in 2.5 mi SSE 12.7 mph 17.3 mph 0.04 in Rain Rain
3:24 PM 59.0 °F 55.0 °F 87% 29.74 in 3.0 mi South 6.9 mph - 0.07 in Rain Light Rain
3:53 PM 59.0 °F 55.0 °F 87% 29.73 in 6.0 mi South 9.2 mph - 0.08 in Rain Light Rain
4:53 PM 61.0 °F 54.0 °F 78% 29.73 in 10.0 mi South 4.6 mph - 0.00 in   Scattered Clouds
5:53 PM 60.1 °F 52.0 °F 75% 29.74 in 10.0 mi Calm Calm - N/A   Overcast
6:53 PM 60.1 °F 53.1 °F 78% 29.75 in 10.0 mi Calm Calm - N/A   Overcast
7:19 PM 59.0 °F 54.0 °F 83% 29.76 in 10.0 mi South 5.8 mph - N/A   Overcast
7:34 PM 59.0 °F 53.1 °F 81% 29.76 in 10.0 mi South 4.6 mph - N/A   Overcast
7:53 PM 57.0 °F 53.1 °F 87% 29.76 in 10.0 mi SW 4.6 mph - N/A   Overcast
8:53 PM 53.1 °F 51.1 °F 93% 29.76 in 10.0 mi West 3.5 mph - N/A   Clear
9:53 PM 53.1 °F 51.1 °F 93% 29.77 in 5.0 mi Calm Calm - N/A   Partly Cloudy
10:53 PM 54.0 °F 52.0 °F 93% 29.76 in 10.0 mi NNE 3.5 mph - N/A   Mostly Cloudy
11:53 PM 50.0 °F 48.9 °F 96% 29.75 in 0.5 mi Calm Calm - N/A Fog Fog